H1 CPF 2 NER 2025 8 6 9 218 01 glonass138 H2 1805301 9138 43508 2025 8 6 0 0 0 2025 8 9 23 45 0 900 1 1 0 0 0 1 H9 10 0 60893 0.00000 0 18020031.868 -16482600.839 -7320563.115 10 0 60893 900.00000 0 17213561.681 -15728111.346 -10310458.303 10 0 60893 1800.00000 0 16268238.630 -14619748.912 -13099754.493 10 0 60893 2700.00000 0 15244781.302 -13160097.937 -15634201.795 10 0 60893 3600.00000 0 14203886.940 -11365059.855 -17864526.871 10 0 60893 4500.00000 0 13203583.936 -9263428.658 -19747393.291 10 0 60893 5400.00000 0 12296716.540 -6895930.927 -21246243.665 10 0 60893 6300.00000 0 11528668.096 -4313770.172 -22332007.402 10 0 60893 7200.00000 0 10935418.697 -1576736.004 -22983660.729 10 0 60893 8100.00000 0 10542018.698 1249043.225 -23188628.729 10 0 60893 9000.00000 0 10361541.685 4093611.006 -22943022.343 10 0 60893 9900.00000 0 10394560.157 6885852.371 -22251706.402 10 0 60893 10800.00000 0 10629165.104 9556212.267 -21128198.087 10 0 60893 11700.00000 0 11041527.783 12039350.367 -19594398.209 10 0 60893 12600.00000 0 11596979.281 14276622.807 -17680160.926 10 0 60893 13500.00000 0 12251561.835 16218288.758 -15422710.372 10 0 60893 14400.00000 0 12953986.116 17825351.176 -12865915.543 10 0 60893 15300.00000 0 13647911.758 19070956.315 -10059437.452 10 0 60893 16200.00000 0 14274454.867 19941294.966 -7057764.974 10 0 60893 17100.00000 0 14774816.737 20435969.104 -3919157.956 10 0 60893 18000.00000 0 15092922.886 20567809.884 -704518.030 10 0 60893 18900.00000 0 15177961.102 20362155.816 2523791.035 10 0 60893 19800.00000 0 14986711.360 19855622.420 5703150.620 10 0 60893 20700.00000 0 14485569.227 19094415.879 8771898.731 10 0 60893 21600.00000 0 13652177.177 18132262.175 11670522.291 10 0 60893 22500.00000 0 12476594.686 17028039.123 14342807.266 10 0 60893 23400.00000 0 10961957.205 15843211.017 16736924.536 10 0 60893 24300.00000 0 9124595.484 14639173.619 18806430.828 10 0 60893 25200.00000 0 6993609.104 13474620.792 20511165.755 10 0 60893 26100.00000 0 4609910.779 12403043.000 21818028.034 10 0 60893 27000.00000 0 2024779.869 11470462.220 22701616.319 10 0 60893 27900.00000 0 -702016.187 10713497.874 23144722.633 10 0 60893 28800.00000 0 -3504455.885 10157844.585 23138669.036 10 0 60893 29700.00000 0 -6312761.780 9817225.372 22683481.019 10 0 60893 30600.00000 0 -9056060.396 9692864.209 21787894.008 10 0 60893 31500.00000 0 -11665094.593 9773500.232 20469192.328 10 0 60893 32400.00000 0 -14074876.725 10035943.375 18752883.016 10 0 60893 33300.00000 0 -16227172.989 10446148.500 16672209.888 10 0 60893 34200.00000 0 -18072715.953 10960763.348 14267516.338 10 0 60893 35100.00000 0 -19573053.249 11529085.478 11585468.331 10 0 60893 36000.00000 0 -20701955.269 12095345.943 8678151.924 10 0 60893 36900.00000 0 -21446322.862 12601223.226 5602062.363 10 0 60893 37800.00000 0 -21806556.947 12988480.901 2417004.295 10 0 60893 38700.00000 0 -21796374.525 13201616.788 -815075.389 10 0 60893 39600.00000 0 -21442079.013 13190410.551 -4031298.767 10 0 60893 40500.00000 0 -20781316.033 12912260.750 -7169087.820 10 0 60893 41400.00000 0 -19861367.696 12334211.127 -10167390.169 10 0 60893 42300.00000 0 -18737058.130 11434579.065 -12967874.703 10 0 60893 43200.00000 0 -17468359.521 10204116.128 -15516072.924 10 0 60893 44100.00000 0 -16117800.543 8646650.520 -17762443.061 10 0 60893 45000.00000 0 -14747787.292 6779183.402 -19663335.756 10 0 60893 45900.00000 0 -13417950.221 4631434.196 -21181842.408 10 0 60893 46800.00000 0 -12182629.093 2244853.296 -22288509.840 10 0 60893 47700.00000 0 -11088601.769 -328856.962 -22961907.820 10 0 60893 48600.00000 0 -10173151.934 -3029651.695 -23189039.020 10 0 60893 49500.00000 0 -9462556.245 -5791403.982 -22965584.198 10 0 60893 50400.00000 0 -8971053.494 -8544422.726 -22295978.549 10 0 60893 51300.00000 0 -8700337.933 -11218123.589 -21193318.407 10 0 60893 52200.00000 0 -8639596.839 -13743742.551 -19679100.627 10 0 60893 53100.00000 0 -8766089.570 -16056979.952 -17782800.044 10 0 60893 54000.00000 0 -9046242.676 -18100465.920 -15541293.398 10 0 60893 54900.00000 0 -9437214.116 -19825945.547 -12998140.907 10 0 60893 55800.00000 0 -9888859.999 -21196093.799 -10202739.392 10 0 60893 56700.00000 0 -10346020.444 -22185885.576 -7209363.242 10 0 60893 57600.00000 0 -10751027.853 -22783464.839 -4076111.690 10 0 60893 58500.00000 0 -11046331.515 -22990477.500 -863782.745 10 0 60893 59400.00000 0 -11177127.620 -22821855.204 2365304.442 10 0 60893 60300.00000 0 -11093883.547 -22305059.947 5548515.991 10 0 60893 61200.00000 0 -10754649.690 -21478822.002 8624115.088 10 0 60893 62100.00000 0 -10127061.068 -20391424.682 11532455.725 10 0 60893 63000.00000 0 -9189943.925 -19098608.341 14217135.413 10 0 60893 63900.00000 0 -7934459.090 -17661181.737 16626084.712 10 0 60893 64800.00000 0 -6364733.228 -16142440.953 18712572.808 10 0 60893 65700.00000 0 -4497950.421 -14605503.852 20436110.118 10 0 60893 66600.00000 0 -2363898.957 -13110671.417 21763230.856 10 0 60893 67500.00000 0 -3990.828 -11712925.981 22668140.904 10 0 60893 68400.00000 0 2530206.805 -10459670.533 23133218.811 10 0 60893 69300.00000 0 5178868.638 -9388803.196 23149360.438 10 0 60893 70200.00000 0 7876159.458 -8527207.012 22716160.571 10 0 60893 71100.00000 0 10552741.685 -7889717.883 21841927.739 10 0 60893 72000.00000 0 13138439.315 -7478613.763 20543531.438 10 0 60893 72900.00000 0 15564948.626 -7283646.449 18846083.988 10 0 60893 73800.00000 0 17768483.732 -7282614.736 16782462.275 10 0 60893 74700.00000 0 19692247.231 -7442455.020 14392677.717 10 0 60893 75600.00000 0 21288623.175 -7720803.598 11723105.779 10 0 60893 76500.00000 0 22521000.693 -8067964.851 8825589.203 10 0 60893 77400.00000 0 23365151.733 -8429202.164 5756431.957 10 0 60893 78300.00000 0 23810104.920 -8747254.366 2575303.251 10 0 60893 79200.00000 0 23858478.575 -8964970.631 -655926.870 10 0 60893 80100.00000 0 23526258.779 -9027951.407 -3874397.173 10 0 60893 81000.00000 0 22842031.904 -8887082.378 -7017485.786 10 0 60893 81900.00000 0 21845704.217 -8500852.906 -10024036.785 10 0 60893 82800.00000 0 20586763.061 -7837359.422 -12835557.883 10 0 60893 83700.00000 0 19122153.600 -6875907.713 -15397364.997 10 0 60893 84600.00000 0 17513861.311 -5608145.147 -17659650.680 10 0 60893 85500.00000 0 15826302.869 -4038673.968 -19578455.125 10 0 60894 0.00000 0 14123635.915 -2185119.082 -21116520.554 10 0 60894 900.00000 0 12467100.322 -77645.667 -22244013.312 10 0 60894 1800.00000 0 10912504.961 2242051.257 -22939098.017 10 0 60894 2700.00000 0 9507962.108 4722246.792 -23188356.021 10 0 60894 3600.00000 0 8291966.106 7303111.062 -22987038.594 10 0 60894 4500.00000 0 7291894.944 9918980.112 -22339151.570 10 0 60894 5400.00000 0 6522996.425 12500878.485 -21257370.306 10 0 60894 6300.00000 0 5987900.023 14979189.016 -19762787.138 10 0 60894 7200.00000 0 5676673.414 17286359.267 -17884496.600 10 0 60894 8100.00000 0 5567419.873 19359532.673 -15659026.635 10 0 60894 9000.00000 0 5627390.108 21142995.560 -13129626.867 10 0 60894 9900.00000 0 5814560.671 22590338.886 -10345427.693 10 0 60894 10800.00000 0 6079611.536 23666245.353 -7360486.396 10 0 60894 11700.00000 0 6368218.823 24347828.169 -4232738.617 10 0 60894 12600.00000 0 6623565.440 24625466.303 -1022875.481 10 0 60894 13500.00000 0 6788963.339 24503102.100 2206831.931 10 0 60894 14400.00000 0 6810476.382 23997989.532 5393738.036 10 0 60894 15300.00000 0 6639432.886 23139904.222 8476034.734 10 0 60894 16200.00000 0 6234721.527 21969848.866 11393946.511 10 0 60894 17100.00000 0 5564773.428 20538308.607 14090885.649 10 0 60894 18000.00000 0 4609146.424 18903129.612 16514545.349 10 0 60894 18900.00000 0 3359644.134 17127109.670 18617909.916 10 0 60894 19800.00000 0 1820921.911 15275401.397 20360162.880 10 0 60894 20700.00000 0 10553.083 13412836.307 21707475.892 10 0 60894 21600.00000 0 -2041448.679 11601281.046 22633663.591 10 0 60894 22500.00000 0 -4293632.473 9897135.627 23120692.145 10 0 60894 23400.00000 0 -6694598.606 8349077.502 23159031.820 10 0 60894 24300.00000 0 -9184912.019 6996145.053 22747846.778 10 0 60894 25200.00000 0 -11699362.717 5866239.972 21895018.182 10 0 60894 26100.00000 0 -14169480.590 4975110.718 20616999.658 10 0 60894 27000.00000 0 -16526201.194 4325859.217 18938507.198 10 0 60894 27900.00000 0 -18702572.462 3908991.270 16892048.618 10 0 60894 28800.00000 0 -20636390.072 3703008.440 14517300.756 10 0 60894 29700.00000 0 -22272651.772 3675516.425 11860345.577 10 0 60894 30600.00000 0 -23565728.013 3784803.138 8972779.256 10 0 60894 31500.00000 0 -24481157.725 3981819.677 5910711.058 10 0 60894 32400.00000 0 -24996993.478 4212480.124 2733671.293 10 0 60894 33300.00000 0 -25104639.051 4420182.248 -496550.276 10 0 60894 34200.00000 0 -24809143.770 4548441.563 -3717112.434 10 0 60894 35100.00000 0 -24128940.936 4543526.075 -6865352.644 10 0 60894 36000.00000 0 -23095041.316 4356978.870 -9880014.445 10 0 60894 36900.00000 0 -21749715.851 3947920.358 -12702447.158 10 0 60894 37800.00000 0 -20144723.494 3285031.421 -15277753.627 10 0 60894 38700.00000 0 -18339159.323 2348132.291 -17555862.912 10 0 60894 39600.00000 0 -16397014.120 1129289.399 -19492506.530 10 0 60894 40500.00000 0 -14384548.534 -366597.462 -21050079.081 10 0 60894 41400.00000 0 -12367592.485 -2121753.214 -22198366.686 10 0 60894 42300.00000 0 -10408883.204 -4106033.168 -22915129.430 10 0 60894 43200.00000 0 -8565553.233 -6277955.689 -23186527.143 10 0 60894 44100.00000 0 -6886872.958 -8586219.071 -23007380.961 10 0 60894 45000.00000 0 -5412341.206 -10971639.673 -22381266.303 10 0 60894 45900.00000 0 -4170202.524 -13369430.818 -21320436.154 10 0 60894 46800.00000 0 -3176451.667 -15711727.930 -19845576.663 10 0 60894 47700.00000 0 -2434365.334 -17930255.095 -17985400.176 10 0 60894 48600.00000 0 -1934579.089 -19959022.480 -15776083.792 10 0 60894 49500.00000 0 -1655704.615 -21736942.751 -13260564.394 10 0 60894 50400.00000 0 -1565459.885 -23210257.948 -10487703.760 10 0 60894 51300.00000 0 -1622263.477 -24334676.160 -7511339.852 10 0 60894 52200.00000 0 -1777224.819 -25077129.369 -4389242.536 10 0 60894 53100.00000 0 -1976445.694 -25417079.541 -1181993.902 10 0 60894 54000.00000 0 -2163535.294 -25347318.900 2048185.170 10 0 60894 54900.00000 0 -2282232.230 -24874231.359 5238639.505 10 0 60894 55800.00000 0 -2279022.476 -24017504.559 8327491.819 10 0 60894 56700.00000 0 -2105642.438 -22809304.916 11254839.199 10 0 60894 57600.00000 0 -1721361.283 -21292950.360 13963910.788 10 0 60894 58500.00000 0 -1094945.860 -19521136.380 16402164.465 10 0 60894 59400.00000 0 -206225.000 -17553789.448 18522301.589 10 0 60894 60300.00000 0 952813.358 -15455637.241 20283180.586 10 0 60894 61200.00000 0 2377439.234 -13293596.698 21650612.110 10 0 60894 62100.00000 0 4050137.488 -11134088.317 22598020.868 10 0 60894 63000.00000 0 5941107.786 -9040387.993 23106961.673 10 0 60894 63900.00000 0 8009288.285 -7070126.059 23167479.924 10 0 60894 64800.00000 0 10203862.025 -5273036.990 22778309.598 10 0 60894 65700.00000 0 12466184.875 -3689052.880 21946904.641 10 0 60894 66600.00000 0 14732056.219 -2346819.579 20689302.689 10 0 60894 67500.00000 0 16934239.079 -1262696.921 19029823.021 10 0 60894 68400.00000 0 19005125.698 -440284.406 17000603.730 10 0 60894 69300.00000 0 20879437.991 129508.116 14640986.125 10 0 60894 70200.00000 0 22496850.428 467848.052 11996757.422 10 0 60894 71100.00000 0 23804425.588 606851.968 9119265.635 10 0 60894 72000.00000 0 24758759.991 587989.687 6064423.377 10 0 60894 72900.00000 0 25327749.636 460088.414 2891619.752 10 0 60894 73800.00000 0 25491900.391 277021.875 -337438.385 10 0 60894 74700.00000 0 25245127.413 95183.121 -3559932.718 10 0 60894 75600.00000 0 24595009.369 -29150.954 -6713163.085 10 0 60894 76500.00000 0 23562486.338 -42450.556 -9735775.582 10 0 60894 77400.00000 0 22181013.962 103553.365 -12568964.176 10 0 60894 78300.00000 0 20495209.504 449580.489 -15157621.536 10 0 60894 79200.00000 0 18559047.086 1026835.581 -17451415.932 10 0 60894 80100.00000 0 16433678.357 1855450.237 -19405772.678 10 0 60894 81000.00000 0 14184970.596 2943398.612 -20982740.872 10 0 60894 81900.00000 0 11880865.793 4285933.619 -22151728.684 10 0 60894 82800.00000 0 9588671.557 5865567.933 -22890093.254 10 0 60894 83700.00000 0 7372397.050 7652601.057 -23183574.364 10 0 60894 84600.00000 0 5290244.853 9606170.790 -23026564.173 10 0 60894 85500.00000 0 3392362.730 11675785.384 -22422208.493 10 0 60895 0.00000 0 1718948.128 13803272.486 -21382338.477 10 0 60895 900.00000 0 298782.279 15925064.929 -19927233.901 10 0 60895 1800.00000 0 -851744.351 17974725.477 -18085224.556 10 0 60895 2700.00000 0 -1729079.272 19885609.295 -15892135.815 10 0 60895 3600.00000 0 -2342408.632 21593550.625 -13390590.474 10 0 60895 4500.00000 0 -2713018.161 23039463.023 -10629179.904 10 0 60895 5400.00000 0 -2873142.631 24171744.743 -7661520.543 10 0 60895 6300.00000 0 -2864353.559 24948389.152 -4545213.879 10 0 60895 7200.00000 0 -2735554.126 25338712.218 -1340730.025 10 0 60895 8100.00000 0 -2540666.709 25324625.109 1889763.547 10 0 60895 9000.00000 0 -2336111.182 24901398.888 5083605.466 10 0 60895 9900.00000 0 -2178180.892 24077889.433 8178852.774 10 0 60895 10800.00000 0 -2120427.370 22876213.288 11115478.667 10 0 60895 11700.00000 0 -2211164.414 21330887.974 13836532.593 10 0 60895 12600.00000 0 -2491197.077 19487472.602 16289240.415 10 0 60895 13500.00000 0 -2991871.601 17400765.320 18426023.645 10 0 60895 14400.00000 0 -3733528.858 15132632.440 20205418.445 10 0 60895 15300.00000 0 -4724427.004 12749559.274 21592877.005 10 0 60895 16200.00000 0 -5960179.487 10320024.058 22561436.276 10 0 60895 17100.00000 0 -7423733.123 7911803.534 23092241.458 10 0 60895 18000.00000 0 -9085888.513 5589321.524 23174914.357 10 0 60895 18900.00000 0 -10906342.563 3411149.962 22807759.491 10 0 60895 19800.00000 0 -12835211.143 1427765.532 21997803.731 10 0 60895 20700.00000 0 -14814969.824 -320345.391 20760668.238 10 0 60895 21600.00000 0 -16782733.084 -1804155.224 19120274.457 10 0 60895 22500.00000 0 -18672777.934 -3007076.331 17108389.016 10 0 60895 23400.00000 0 -20419207.309 -3925414.327 14764015.385 10 0 60895 24300.00000 0 -21958642.272 -4568274.938 12132643.223 10 0 60895 25200.00000 0 -23232830.320 -4956928.749 9265369.173 10 0 60895 26100.00000 0 -24191060.093 -5123660.961 6217905.704 10 0 60895 27000.00000 0 -24792280.494 -5110155.177 3049497.045 10 0 60895 27900.00000 0 -25006834.306 -4965480.108 -178236.596 10 0 60895 28800.00000 0 -24817732.473 -4743765.134 -3402503.525 10 0 60895 29700.00000 0 -24221414.487 -4501664.101 -6560569.598 10 0 60895 30600.00000 0 -23227962.123 -4295715.890 -9590986.956 10 0 60895 31500.00000 0 -21860756.994 -4179714.785 -12434797.506 10 0 60895 32400.00000 0 -20155596.030 -4202203.243 -15036686.766 10 0 60895 33300.00000 0 -18159302.063 -4404194.357 -17346064.885 10 0 60895 34200.00000 0 -15927888.039 -4817221.400 -19318053.210 10 0 60895 35100.00000 0 -13524352.148 -5461797.684 -20914357.056 10 0 60895 36000.00000 0 -11016196.518 -6346352.412 -22104007.769 10 0 60895 36900.00000 0 -8472773.460 -7466687.843 -22863960.053 10 0 60895 37800.00000 0 -5962570.118 -8805980.945 -23179533.538 10 0 60895 38700.00000 0 -3550544.494 -10335329.739 -23044690.732 10 0 60895 39600.00000 0 -1295623.338 -12014821.591 -22462146.687 10 0 60895 40500.00000 0 751534.807 -13795078.883 -21443308.922 10 0 60895 41400.00000 0 2550419.479 -15619217.561 -20008049.339 10 0 60895 42300.00000 0 4072114.213 -17425136.853 -18184312.911 10 0 60895 43200.00000 0 5300249.944 -19148044.638 -16007571.000 10 0 60895 44100.00000 0 6231427.866 -20723113.181 -13520129.927 10 0 60895 45000.00000 0 6875095.883 -22088154.387 -10770308.197 10 0 60895 45900.00000 0 7252885.567 -23186202.958 -7811498.235 10 0 60895 46800.00000 0 7397439.028 -23967899.536 -4701130.665 10 0 60895 47700.00000 0 7350776.328 -24393574.247 -1499561.162 10 0 60895 48600.00000 0 7162273.297 -24434943.473 1731098.628 10 0 60895 49500.00000 0 6886335.779 -24076348.834 4928183.494 10 0 60895 50400.00000 0 6579869.004 -23315486.433 8029687.079 10 0 60895 51300.00000 0 6299649.275 -22163595.706 10975460.867 10 0 60895 52200.00000 0 6099709.097 -20645099.749 13708376.670 10 0 60895 53100.00000 0 6028846.242 -18796711.831 16175430.239 10 0 60895 54000.00000 0 6128361.893 -16666044.967 18328764.963 10 0 60895 54900.00000 0 6430123.396 -14309782.001 20126596.233 10 0 60895 55800.00000 0 6955033.471 -11791481.786 21534019.015 10 0 60895 56700.00000 0 7711970.788 -9179112.012 22523683.446 10 0 60895 57600.00000 0 8697247.180 -6542410.397 23076325.776 10 0 60895 58500.00000 0 9894605.261 -3950183.029 23181144.574 10 0 60895 59400.00000 0 11275757.792 -1467651.178 22836014.981 10 0 60895 60300.00000 0 12801447.597 846044.105 22047536.615 10 0 60895 61200.00000 0 14422985.074 2940076.671 20830913.750 10 0 60895 62100.00000 0 16084200.357 4773816.993 19209669.380 10 0 60895 63000.00000 0 17723729.641 6318283.176 17215197.838 10 0 60895 63900.00000 0 19277540.822 7557101.193 14886163.725 10 0 60895 64800.00000 0 20681593.205 8486934.678 12267757.885 10 0 60895 65700.00000 0 21874519.896 9117366.672 9410824.097 10 0 60895 66600.00000 0 22800219.977 9470238.729 6370872.932 10 0 60895 67500.00000 0 23410250.945 9578475.693 3207001.730 10 0 60895 68400.00000 0 23665919.852 9484446.356 -19258.205 10 0 60895 69300.00000 0 23539984.085 9237929.976 -3245144.256 10 0 60895 70200.00000 0 23017889.014 8893775.602 -6407890.884 10 0 60895 71100.00000 0 22098489.355 8509354.313 -9445958.920 10 0 60895 72000.00000 0 20794222.973 8141913.421 -12300240.816 10 0 60895 72900.00000 0 19130729.193 7845945.807 -14915217.453 10 0 60895 73800.00000 0 17145927.237 7670686.865 -17240043.229 10 0 60895 74700.00000 0 14888593.367 7657845.898 -19229537.740 10 0 60895 75600.00000 0 12416496.406 7839668.623 -20845064.562 10 0 60895 76500.00000 0 9794169.801 8237413.133 -22055280.121 10 0 60895 77400.00000 0 7090413.493 8860303.949 -22836738.424 10 0 60895 78300.00000 0 4375629.850 9705008.341 -23174340.516 10 0 60895 79200.00000 0 1719104.487 10755657.006 -23061620.603 10 0 60895 80100.00000 0 -813655.208 11984408.183 -22500864.036 10 0 60895 81000.00000 0 -3163413.864 13352531.461 -21503055.548 10 0 60895 81900.00000 0 -5279431.549 14811965.808 -20087659.307 10 0 60895 82800.00000 0 -7121325.602 16307286.518 -18282235.460 10 0 60895 83700.00000 0 -8660494.882 17777998.714 -16121900.833 10 0 60895 84600.00000 0 -9881048.820 19161061.473 -13648644.321 10 0 60895 85500.00000 0 -10780204.194 20393536.884 -10910510.207 10 0 60896 0.00000 0 -11368134.784 21415253.114 -7960665.436 10 0 60896 900.00000 0 -11667282.147 22171370.452 -4856367.149 10 0 60896 1800.00000 0 -11711157.156 22614741.431 -1657854.440 10 0 60896 2700.00000 0 -11542685.023 22707967.898 1572819.550 10 0 60896 3600.00000 0 -11212163.600 22425067.201 4772988.684 10 0 60896 4500.00000 0 -10774922.104 21752678.033 7880586.312 10 0 60896 5400.00000 0 -10288779.402 20690755.008 10835345.458 10 0 60896 6300.00000 0 -9811409.325 19252722.449 13579963.629 10 0 60896 7200.00000 0 -9397724.256 17465080.447 16061209.811 10 0 60896 8100.00000 0 -9097387.284 15366479.008 18230952.558 10 0 60896 9000.00000 0 -8952557.758 13006298.158 20047089.660 10 0 60896 9900.00000 0 -8995965.174 10442792.309 21474361.820 10 0 60896 10800.00000 0 -9249392.619 7740875.178 22485035.048 10 0 60896 11700.00000 0 -9722633.841 4969636.275 23059438.964 10 0 60896 12600.00000 0 -10412968.350 2199691.108 23186350.792 10 0 60896 13500.00000 0 -11305177.394 -499525.969 22863217.669 10 0 60896 14400.00000 0 -12372101.164 -3062414.883 22096212.772 10 0 60896 15300.00000 0 -13575715.034 -5429699.672 20900123.678 10 0 60896 16200.00000 0 -14868680.919 -7550652.331 19298074.467 10 0 60896 17100.00000 0 -16196309.827 -9384958.839 17321086.086 10 0 60896 18000.00000 0 -17498854.226 -10904150.090 15007482.548 10 0 60896 18900.00000 0 -18714034.608 -12092538.433 12402153.621 10 0 60896 19800.00000 0 -19779694.440 -12947621.025 9555687.464 10 0 60896 20700.00000 0 -20636471.661 -13479933.423 6523389.613 10 0 60896 21600.00000 0 -21230373.841 -13712360.019 3364207.088 10 0 60896 22500.00000 0 -21515147.625 -13678930.861 139578.656 10 0 60896 23400.00000 0 -21454341.544 -13423156.317 -3087765.902 10 0 60896 24300.00000 0 -21022973.955 -12995970.713 -6255033.452 10 0 60896 25200.00000 0 -20208734.571 -12453372.923 -9300597.300 10 0 60896 26100.00000 0 -19012667.778 -11853864.752 -12165204.133 10 0 60896 27000.00000 0 -17449308.022 -11255796.652 -14793133.705 10 0 60896 27900.00000 0 -15546260.791 -10714734.102 -17133287.904 10 0 60896 28800.00000 0 -13343246.373 -10280956.935 -19140187.426 10 0 60896 29700.00000 0 -10890646.185 -9997198.008 -20774856.476 10 0 60896 30600.00000 0 -8247612.402 -9896717.139 -22005578.331 10 0 60896 31500.00000 0 -5479819.904 -10001791.745 -22808507.441 10 0 60896 32400.00000 0 -2656954.218 -10322687.769 -23168126.734 10 0 60896 33300.00000 0 149960.054 -10857153.977 -23077541.953 10 0 60896 34200.00000 0 2871279.481 -11590460.595 -22538608.020 10 0 60896 35100.00000 0 5441398.230 -12495980.282 -21561885.671 10 0 60896 36000.00000 0 7801231.093 -13536286.705 -20166429.741 10 0 60896 36900.00000 0 9900420.973 -14664724.315 -18379413.625 10 0 60896 37800.00000 0 11699180.350 -15827383.224 -16235597.437 10 0 60896 38700.00000 0 13169691.551 -16965396.198 -13776650.240 10 0 60896 39600.00000 0 14297009.055 -18017461.282 -11050339.503 10 0 60896 40500.00000 0 15079427.816 -18922484.137 -8109603.390 10 0 60896 41400.00000 0 15528303.820 -19622229.129 -5011523.738 10 0 60896 42300.00000 0 15667335.905 -20063867.760 -1816219.578 10 0 60896 43200.00000 0 15531340.315 -20202317.317 1414317.443 10 0 60896 44100.00000 0 15164570.627 -20002271.315 4617423.214 10 0 60896 45000.00000 0 14618654.583 -19439836.209 7730973.621 10 0 60896 45900.00000 0 13950235.338 -18503705.283 10694585.876 10 0 60896 46800.00000 0 13218416.821 -17195819.970 13450785.587 10 0 60896 47700.00000 0 12482121.003 -15531490.232 15946117.099 10 0 60896 48600.00000 0 11797468.345 -13538968.182 18132175.938 10 0 60896 49500.00000 0 11215291.592 -11258491.776 19966543.763 10 0 60896 50400.00000 0 10778887.357 -8740837.440 21413608.132 10 0 60896 51300.00000 0 10522099.913 -6045440.712 22445251.700 10 0 60896 52200.00000 0 10467817.707 -3238161.839 23041397.880 10 0 60896 53100.00000 0 10626945.918 -388787.918 23190402.632 10 0 60896 54000.00000 0 10997898.538 2431625.955 22889284.877 10 0 60896 54900.00000 0 11566631.897 5153467.329 22143790.836 10 0 60896 55800.00000 0 12307219.021 7711217.349 20968290.632 10 0 60896 56700.00000 0 13182941.565 10045932.758 19385508.459 10 0 60896 57600.00000 0 14147854.446 12107456.506 17426090.698 10 0 60896 58500.00000 0 15148758.237 13856265.386 15128019.426 10 0 60896 59400.00000 0 16127497.046 15264878.050 12535881.789 10 0 60896 60300.00000 0 17023485.540 16318764.845 9700008.619 10 0 60896 61200.00000 0 17776358.650 17016721.573 6675498.518 10 0 60896 62100.00000 0 18328631.887 17370691.799 3521146.110 10 0 60896 63000.00000 0 18628259.309 17405045.533 298295.401 10 0 60896 63900.00000 0 18630980.112 17155345.194 -2930359.000 10 0 60896 64800.00000 0 18302353.565 16666651.589 -6101998.755 10 0 60896 65700.00000 0 17619395.043 15991442.317 -9154912.022 10 0 60896 66600.00000 0 16571742.806 15187231.501 -12029702.032 10 0 60896 67500.00000 0 15162305.147 14313992.551 -14670449.604 10 0 60896 68400.00000 0 13407359.623 13431493.833 -17025806.157 10 0 60896 69300.00000 0 11336099.415 12596660.777 -19049995.386 10 0 60896 70200.00000 0 8989645.287 11861076.440 -20703703.881 10 0 60896 71100.00000 0 6419564.123 11268726.432 -21954843.403 10 0 60896 72000.00000 0 3685955.782 10854083.388 -22779170.343 10 0 60896 72900.00000 0 855187.883 10640611.511 -23160750.873 10 0 60896 73800.00000 0 -2002627.293 10639753.703 -23092263.440 10 0 60896 74700.00000 0 -4816309.111 10850443.299 -22575133.450 10 0 60896 75600.00000 0 -7516327.286 11259160.252 -21619498.240 10 0 60896 76500.00000 0 -10037450.744 11840528.687 -20244003.538 10 0 60896 77400.00000 0 -12321217.383 12558430.089 -18475435.824 10 0 60896 78300.00000 0 -14318123.199 13367584.790 -16348197.937 10 0 60896 79200.00000 0 -15989440.971 14215534.893 -13903638.190 10 0 60896 80100.00000 0 -17308594.111 15044944.957 -11189245.994 10 0 60896 81000.00000 0 -18262029.836 15796123.493 -8257729.485 10 0 60896 81900.00000 0 -18849556.679 16409659.094 -5165992.906 10 0 60896 82800.00000 0 -19084133.593 16829060.114 -1974033.510 10 0 60896 83700.00000 0 -18991120.809 17003286.721 1256220.740 10 0 60896 84600.00000 0 -18607025.000 16889068.553 4462110.149 10 0 60896 85500.00000 0 -17977792.407 16452910.213 7581455.743 99